| time (UTC) | temp F | wind direction | speed MPH | gust MPH | rain 1hr in | rain 24hr in | rain mn in | humidity % | barometer mb |
| 20260510094043 | 66 | 236 | 2.0 | 5.0 | 0.00 | 0.00 | 0.00 | 30 | 1021.2 |
| 20260510093540 | 66 | 0 | 0.0 | 5.0 | 0.00 | 0.00 | 0.00 | 30 | 1021.2 |
| 20260510093045 | 66 | 0 | 0.0 | 5.0 | 0.00 | 0.00 | 0.00 | 31 | 1021.2 |
| 20260510092540 | 65 | 330 | 0.0 | 5.0 | 0.00 | 0.00 | 0.00 | 32 | 1021.2 |
| 20260510092044 | 66 | 0 | 0.0 | 5.0 | 0.00 | 0.00 | 0.00 | 32 | 1021.2 |
| 20260510091550 | 66 | 0 | 0.0 | 5.0 | 0.00 | 0.00 | 0.00 | 32 | 1021.2 |
| 20260510091038 | 66 | 0 | 0.0 | 4.0 | 0.00 | 0.00 | 0.00 | 31 | 1021.2 |
| 20260510090539 | 66 | 354 | 0.0 | 4.0 | 0.00 | 0.00 | 0.00 | 31 | 1021.2 |
| 20260510090048 | 66 | 160 | 0.0 | 4.0 | 0.00 | 0.00 | 0.00 | 31 | 1021.2 |
| 20260510085542 | 67 | 0 | 0.0 | 4.0 | 0.00 | 0.00 | 0.00 | 31 | 1021.2 |
| 20260510085039 | 67 | 246 | 0.0 | 4.0 | 0.00 | 0.00 | 0.00 | 31 | 1021.2 |
| 20260510084548 | 68 | 285 | 1.0 | 6.0 | 0.00 | 0.00 | 0.00 | 30 | 1021.2 |
| 20260510084040 | 68 | 245 | 0.0 | 6.0 | 0.00 | 0.00 | 0.00 | 30 | 1021.2 |
| 20260510083539 | 68 | 0 | 2.0 | 6.0 | 0.00 | 0.00 | 0.00 | 30 | 1021.2 |
| 20260510083048 | 67 | 238 | 0.0 | 3.0 | 0.00 | 0.00 | 0.00 | 30 | 1021.2 |
| 20260510082538 | 68 | 0 | 0.0 | 7.0 | 0.00 | 0.00 | 0.00 | 32 | 1021.2 |
| 20260510082039 | 68 | 218 | 2.0 | 7.0 | 0.00 | 0.00 | 0.00 | 32 | 1021.2 |
| 20260510081558 | 68 | 217 | 2.0 | 7.0 | 0.00 | 0.00 | 0.00 | 31 | 1021.2 |
| 20260510081038 | 68 | 249 | 1.0 | 7.0 | 0.00 | 0.00 | 0.00 | 31 | 1021.2 |
| 20260510080540 | 68 | 233 | 2.0 | 10.0 | 0.00 | 0.00 | 0.00 | 31 | 1021.2 |
| 20260510080046 | 69 | 254 | 2.0 | 11.0 | 0.00 | 0.00 | 0.00 | 31 | 1021.2 |
| 20260510075539 | 69 | 233 | 4.0 | 11.0 | 0.00 | 0.00 | 0.00 | 29 | 1021.2 |
| 20260510075040 | 69 | 245 | 4.0 | 11.0 | 0.00 | 0.00 | 0.00 | 30 | 1021.2 |
| 20260510074552 | 69 | 0 | 2.0 | 11.0 | 0.00 | 0.00 | 0.00 | 30 | 1021.2 |
| 20260510074038 | 69 | 229 | 2.0 | 6.0 | 0.00 | 0.00 | 0.00 | 29 | 1021.2 |
| 20260510073539 | 69 | 241 | 1.0 | 11.0 | 0.00 | 0.00 | 0.00 | 28 | 1021.2 |
| 20260510073050 | 70 | 217 | 4.0 | 11.0 | 0.00 | 0.00 | 0.00 | 28 | 1021.2 |
| 20260510072540 | 70 | 210 | 6.0 | 11.0 | 0.00 | 0.00 | 0.00 | 28 | 1021.2 |
| 20260510072039 | 70 | 210 | 5.0 | 12.0 | 0.00 | 0.00 | 0.00 | 27 | 1021.2 |
| 20260510071548 | 70 | 163 | 5.0 | 12.0 | 0.00 | 0.00 | 0.00 | 27 | 1021.2 |
| 20260510071038 | 70 | 131 | 5.0 | 13.0 | 0.00 | 0.00 | 0.00 | 27 | 1021.2 |
| 20260510070538 | 71 | 205 | 6.0 | 15.0 | 0.00 | 0.00 | 0.00 | 26 | 1021.2 |
| 20260510070055 | 71 | 231 | 8.0 | 15.0 | 0.00 | 0.00 | 0.00 | 26 | 1021.2 |
| 20260510065540 | 71 | 122 | 7.0 | 17.0 | 0.00 | 0.00 | 0.00 | 25 | 1021.2 |
| 20260510065039 | 71 | 211 | 8.0 | 17.0 | 0.00 | 0.00 | 0.00 | 25 | 1021.2 |
| 20260510064544 | 71 | 219 | 8.0 | 17.0 | 0.00 | 0.00 | 0.00 | 25 | 1021.2 |
| 20260510064038 | 71 | 217 | 8.0 | 14.0 | 0.00 | 0.00 | 0.00 | 25 | 1021.2 |
| 20260510063538 | 71 | 143 | 6.0 | 17.0 | 0.00 | 0.00 | 0.00 | 25 | 1021.2 |
| 20260510063051 | 71 | 217 | 7.0 | 17.0 | 0.00 | 0.00 | 0.00 | 25 | 1021.2 |
| 20260510062539 | 71 | 193 | 7.0 | 15.0 | 0.00 | 0.00 | 0.00 | 25 | 1021.2 |
| 20260510062043 | 71 | 189 | 6.0 | 17.0 | 0.00 | 0.00 | 0.00 | 26 | 1021.2 |
| 20260510061543 | 71 | 232 | 8.0 | 17.0 | 0.00 | 0.00 | 0.00 | 26 | 1021.2 |
| 20260510061042 | 71 | 156 | 6.0 | 14.0 | 0.00 | 0.00 | 0.00 | 26 | 1021.2 |
| 20260510060539 | 70 | 183 | 6.0 | 14.0 | 0.00 | 0.00 | 0.00 | 27 | 1021.2 |
| 20260510060057 | 71 | 158 | 7.0 | 16.0 | 0.00 | 0.00 | 0.00 | 28 | 1021.2 |
| 20260510055539 | 70 | 151 | 4.0 | 16.0 | 0.00 | 0.00 | 0.00 | 28 | 1021.2 |
| 20260510055039 | 70 | 281 | 6.0 | 16.0 | 0.00 | 0.00 | 0.00 | 28 | 1021.2 |
| 20260510054549 | 70 | 226 | 6.0 | 14.0 | 0.00 | 0.00 | 0.00 | 28 | 1021.2 |
| 20260510054040 | 70 | 258 | 4.0 | 14.0 | 0.00 | 0.00 | 0.00 | 29 | 1021.2 |
| 20260510053542 | 70 | 142 | 4.0 | 15.0 | 0.00 | 0.00 | 0.00 | 29 | 1021.2 |
| 20260510053047 | 70 | 243 | 4.0 | 15.0 | 0.00 | 0.00 | 0.00 | 29 | 1021.2 |
| 20260510052539 | 70 | 172 | 3.0 | 14.0 | 0.00 | 0.00 | 0.00 | 29 | 1021.2 |
| 20260510052039 | 70 | 87 | 1.0 | 14.0 | 0.00 | 0.00 | 0.00 | 29 | 1021.2 |
| 20260510051613 | 70 | 0 | 2.0 | 14.0 | 0.00 | 0.00 | 0.00 | 28 | 1021.2 |
| 20260510051042 | 70 | 244 | 0.0 | 9.0 | 0.00 | 0.00 | 0.00 | 28 | 1021.2 |
| 20260510050538 | 70 | 8 | 2.0 | 10.0 | 0.00 | 0.00 | 0.00 | 28 | 1021.2 |
| 20260510050045 | 70 | 83 | 1.0 | 10.0 | 0.00 | 0.00 | 0.00 | 27 | 1021.2 |
| 20260510045539 | 70 | 319 | 1.0 | 9.0 | 0.00 | 0.00 | 0.00 | 27 | 1021.2 |
| 20260510045039 | 70 | 212 | 1.0 | 11.0 | 0.00 | 0.00 | 0.00 | 27 | 1021.2 |
| 20260510044549 | 69 | 71 | 3.0 | 11.0 | 0.00 | 0.00 | 0.00 | 27 | 1021.2 |
| 20260510044040 | 69 | 65 | 0.0 | 5.0 | 0.00 | 0.00 | 0.00 | 27 | 1021.2 |
| 20260510043540 | 69 | 0 | 0.0 | 11.0 | 0.00 | 0.00 | 0.00 | 27 | 1021.2 |
| 20260510043125 | 69 | 266 | 0.0 | 11.0 | 0.00 | 0.00 | 0.00 | 26 | 1021.2 |
| 20260510042540 | 69 | 222 | 2.0 | 11.0 | 0.00 | 0.00 | 0.00 | 26 | 1021.2 |
| 20260510042040 | 68 | 242 | 1.0 | 11.0 | 0.00 | 0.00 | 0.00 | 26 | 1021.2 |
| 20260510041552 | 66 | 122 | 2.0 | 11.0 | 0.00 | 0.00 | 0.00 | 27 | 1021.2 |
| 20260510041040 | 62 | 230 | 3.0 | 11.0 | 0.00 | 0.00 | 0.00 | 31 | 1021.2 |
| 20260510040539 | 52 | 216 | 0.0 | 4.0 | 0.00 | 0.00 | 0.00 | 37 | 1021.2 |
| 20260510040050 | 50 | 0 | 0.0 | 0.0 | 0.00 | 0.00 | 0.00 | 38 | 1021.2 |
| 20260510035538 | 51 | 0 | 0.0 | 0.0 | 0.00 | 0.00 | 0.00 | 37 | 1021.2 |
| 20260510035042 | 51 | 0 | 0.0 | 0.0 | 0.00 | 0.00 | 0.00 | 36 | 1021.2 |
| 20260510034550 | 52 | 0 | 0.0 | 0.0 | 0.00 | 0.00 | 0.00 | 35 | 1021.2 |
| 20260510034039 | 52 | 0 | 0.0 | 0.0 | 0.00 | 0.00 | 0.00 | 35 | 1021.2 |
| 20260510033541 | 52 | 0 | 0.0 | 0.0 | 0.00 | 0.00 | 0.00 | 35 | 1021.2 |
| 20260510033049 | 53 | 0 | 0.0 | 0.0 | 0.00 | 0.00 | 0.00 | 35 | 1021.2 |
| 20260510032539 | 53 | 0 | 0.0 | 0.0 | 0.00 | 0.00 | 0.00 | 34 | 1021.2 |
| 20260510032039 | 53 | 0 | 0.0 | 0.0 | 0.00 | 0.00 | 0.00 | 35 | 1021.2 |
| 20260510031615 | 53 | 0 | 0.0 | 0.0 | 0.00 | 0.00 | 0.00 | 34 | 1021.2 |
| 20260510031039 | 54 | 0 | 0.0 | 0.0 | 0.00 | 0.00 | 0.00 | 34 | 1021.2 |
| 20260510030540 | 54 | 0 | 0.0 | 0.0 | 0.00 | 0.00 | 0.00 | 33 | 1021.2 |
| 20260510030053 | 55 | 0 | 0.0 | 0.0 | 0.00 | 0.00 | 0.00 | 32 | 1021.2 |
| 20260510025539 | 56 | 0 | 0.0 | 0.0 | 0.00 | 0.00 | 0.00 | 32 | 1021.2 |
| 20260510025039 | 56 | 0 | 0.0 | 0.0 | 0.00 | 0.00 | 0.00 | 31 | 1021.2 |
| 20260510024549 | 57 | 0 | 0.0 | 0.0 | 0.00 | 0.00 | 0.00 | 31 | 1021.2 |
| 20260510024038 | 58 | 0 | 0.0 | 0.0 | 0.00 | 0.00 | 0.00 | 31 | 1021.2 |
| 20260510023538 | 58 | 0 | 0.0 | 0.0 | 0.00 | 0.00 | 0.00 | 30 | 1021.2 |
| 20260510023054 | 59 | 0 | 0.0 | 0.0 | 0.00 | 0.00 | 0.00 | 30 | 1021.2 |
| 20260510022539 | 60 | 0 | 0.0 | 0.0 | 0.00 | 0.00 | 0.00 | 30 | 1021.2 |
| 20260510022039 | 61 | 0 | 0.0 | 0.0 | 0.00 | 0.00 | 0.00 | 29 | 1021.2 |
| 20260510021546 | 62 | 0 | 0.0 | 0.0 | 0.00 | 0.00 | 0.00 | 28 | 1021.2 |
| 20260510021038 | 63 | 0 | 0.0 | 0.0 | 0.00 | 0.00 | 0.00 | 27 | 1021.2 |
| 20260510020541 | 64 | 0 | 0.0 | 0.0 | 0.00 | 0.00 | 0.00 | 27 | 1021.2 |
| 20260510020048 | 65 | 0 | 0.0 | 0.0 | 0.00 | 0.00 | 0.00 | 26 | 1021.2 |
| 20260510015539 | 67 | 0 | 0.0 | 0.0 | 0.00 | 0.00 | 0.00 | 25 | 1021.2 |
| 20260510015040 | 68 | 0 | 0.0 | 0.0 | 0.00 | 0.00 | 0.00 | 23 | 1021.2 |
| 20260510014550 | 69 | 0 | 0.0 | 0.0 | 0.00 | 0.00 | 0.00 | 23 | 1021.2 |
| 20260510014040 | 71 | 0 | 0.0 | 0.0 | 0.00 | 0.00 | 0.00 | 22 | 1021.2 |
| 20260510013540 | 72 | 0 | 0.0 | 0.0 | 0.00 | 0.00 | 0.00 | 20 | 1021.2 |
| 20260510013050 | 74 | 0 | 0.0 | 1.0 | 0.00 | 0.00 | 0.00 | 19 | 1021.2 |
| 20260510012539 | 76 | 0 | 0.0 | 2.0 | 0.00 | 0.00 | 0.00 | 20 | 1021.2 |
| 20260510012039 | 76 | 0 | 0.0 | 2.0 | 0.00 | 0.00 | 0.00 | 17 | 1021.2 |
| 20260510011602 | 76 | 0 | 0.0 | 2.0 | 0.00 | 0.00 | 0.00 | 18 | 1021.2 |
| 20260510011039 | 77 | 0 | 0.0 | 0.0 | 0.00 | 0.00 | 0.00 | 18 | 1021.2 |
| 20260510010541 | 78 | 0 | 0.0 | 0.0 | 0.00 | 0.00 | 0.00 | 17 | 1021.2 |
| 20260510005539 | 81 | 0 | 0.0 | 1.0 | 0.00 | 0.00 | 0.00 | 15 | 1021.2 |
| 20260510005038 | 82 | 0 | 0.0 | 2.0 | 0.00 | 0.00 | 0.00 | 15 | 1021.2 |
| 20260510004551 | 81 | 0 | 0.0 | 3.0 | 0.00 | 0.00 | 0.00 | 15 | 1021.2 |
| 20260510004043 | 81 | 64 | 0.0 | 5.0 | 0.00 | 0.00 | 0.00 | 15 | 1021.2 |
| 20260510003539 | 81 | 5 | 1.0 | 5.0 | 0.00 | 0.00 | 0.00 | 15 | 1021.2 |
| 20260510003046 | 82 | 67 | 0.0 | 5.0 | 0.00 | 0.00 | 0.00 | 15 | 1021.2 |
| 20260510002539 | 82 | 63 | 1.0 | 4.0 | 0.00 | 0.00 | 0.00 | 15 | 1021.2 |
| 20260510002038 | 83 | 11 | 0.0 | 5.0 | 0.00 | 0.00 | 0.00 | 15 | 1021.2 |
| 20260510001550 | 82 | 0 | 0.0 | 5.0 | 0.00 | 0.00 | 0.00 | 15 | 1021.2 |
| 20260510001040 | 82 | 0 | 2.0 | 8.0 | 0.00 | 0.00 | 0.00 | 15 | 1021.2 |
| 20260510000539 | 83 | 0 | 2.0 | 8.0 | 0.00 | 0.00 | 0.00 | 15 | 1021.2 |
| 20260510000056 | 83 | 176 | 3.0 | 8.0 | 0.00 | 0.00 | 0.00 | 14 | 1021.2 |
| 20260509235539 | 83 | 0 | 1.0 | 6.0 | 0.00 | 0.00 | 0.00 | 14 | 1021.2 |
| 20260509235039 | 83 | 95 | 2.0 | 6.0 | 0.00 | 0.00 | 0.00 | 15 | 1021.2 |
| 20260509234547 | 83 | 0 | 0.0 | 6.0 | 0.00 | 0.00 | 0.00 | 15 | 1021.2 |
| 20260509234038 | 83 | 96 | 1.0 | 6.0 | 0.00 | 0.00 | 0.00 | 15 | 1021.2 |
| 20260509233538 | 83 | 139 | 0.0 | 10.0 | 0.00 | 0.00 | 0.00 | 15 | 1021.2 |
| 20260509233047 | 83 | 89 | 3.0 | 10.0 | 0.00 | 0.00 | 0.00 | 15 | 1021.2 |
| 20260509232539 | 83 | 0 | 1.0 | 8.0 | 0.00 | 0.00 | 0.00 | 15 | 1021.2 |
| 20260509232039 | 83 | 64 | 4.0 | 8.0 | 0.00 | 0.00 | 0.00 | 15 | 1021.2 |
| 20260509231554 | 84 | 63 | 0.0 | 6.0 | 0.00 | 0.00 | 0.00 | 15 | 1021.2 |
| 20260509231039 | 84 | 0 | 0.0 | 6.0 | 0.00 | 0.00 | 0.00 | 15 | 1021.2 |
| 20260509230538 | 84 | 328 | 1.0 | 5.0 | 0.00 | 0.00 | 0.00 | 15 | 1021.2 |
| 20260509230050 | 83 | 6 | 1.0 | 9.0 | 0.00 | 0.00 | 0.00 | 14 | 1021.2 |
| 20260509225540 | 83 | 0 | 0.0 | 12.0 | 0.00 | 0.00 | 0.00 | 15 | 1021.2 |
| 20260509225039 | 83 | 72 | 5.0 | 12.0 | 0.00 | 0.00 | 0.00 | 14 | 1021.2 |
| 20260509224552 | 84 | 55 | 4.0 | 8.0 | 0.00 | 0.00 | 0.00 | 14 | 1021.2 |
| 20260509224039 | 84 | 95 | 1.0 | 8.0 | 0.00 | 0.00 | 0.00 | 15 | 1021.2 |
| 20260509223540 | 84 | 155 | 3.0 | 7.0 | 0.00 | 0.00 | 0.00 | 14 | 1021.2 |
| 20260509223049 | 83 | 0 | 0.0 | 11.0 | 0.00 | 0.00 | 0.00 | 15 | 1021.2 |
| 20260509222541 | 83 | 256 | 0.0 | 11.0 | 0.00 | 0.00 | 0.00 | 15 | 1021.2 |
| 20260509222039 | 83 | 0 | 4.0 | 11.0 | 0.00 | 0.00 | 0.00 | 15 | 1021.2 |
| 20260509221550 | 83 | 71 | 4.0 | 8.0 | 0.00 | 0.00 | 0.00 | 14 | 1021.2 |
| 20260509221039 | 84 | 0 | 3.0 | 9.0 | 0.00 | 0.00 | 0.00 | 14 | 1021.2 |
| 20260509220540 | 84 | 229 | 1.0 | 9.0 | 0.00 | 0.00 | 0.00 | 15 | 1021.2 |
| 20260509220049 | 84 | 146 | 4.0 | 9.0 | 0.00 | 0.00 | 0.00 | 15 | 1021.2 |
| 20260509215540 | 83 | 270 | 0.0 | 11.0 | 0.00 | 0.00 | 0.00 | 15 | 1021.2 |
| 20260509215043 | 83 | 86 | 5.0 | 11.0 | 0.00 | 0.00 | 0.00 | 14 | 1021.2 |
| 20260509214547 | 83 | 66 | 2.0 | 8.0 | 0.00 | 0.00 | 0.00 | 15 | 1021.2 |
| 20260509214038 | 83 | 70 | 3.0 | 11.0 | 0.00 | 0.00 | 0.00 | 14 | 1021.2 |
| 20260509213538 | 83 | 93 | 4.0 | 11.0 | 0.00 | 0.00 | 0.00 | 15 | 1021.2 |
| 20260509213102 | 83 | 233 | 1.0 | 6.0 | 0.00 | 0.00 | 0.00 | 16 | 1021.2 |
| 20260509212541 | 82 | 141 | 2.0 | 8.0 | 0.00 | 0.00 | 0.00 | 16 | 1021.2 |
| 20260509212039 | 81 | 65 | 4.0 | 8.0 | 0.00 | 0.00 | 0.00 | 16 | 1021.2 |
| 20260509211612 | 81 | 112 | 3.0 | 8.0 | 0.00 | 0.00 | 0.00 | 15 | 1021.2 |
| 20260509211038 | 83 | 75 | 2.0 | 10.0 | 0.00 | 0.00 | 0.00 | 16 | 1021.2 |
| 20260509210539 | 83 | 90 | 4.0 | 10.0 | 0.00 | 0.00 | 0.00 | 15 | 1021.2 |
| 20260509210048 | 84 | 0 | 1.0 | 8.0 | 0.00 | 0.00 | 0.00 | 15 | 1021.2 |
| 20260509205539 | 84 | 219 | 2.0 | 14.0 | 0.00 | 0.00 | 0.00 | 15 | 1021.2 |
| 20260509205040 | 83 | 129 | 2.0 | 14.0 | 0.00 | 0.00 | 0.00 | 16 | 1021.2 |
| 20260509204600 | 83 | 0 | 1.0 | 9.0 | 0.00 | 0.00 | 0.00 | 14 | 1021.2 |
| 20260509204040 | 83 | 323 | 2.0 | 9.0 | 0.00 | 0.00 | 0.00 | 14 | 1021.2 |
| 20260509203538 | 83 | 285 | 3.0 | 9.0 | 0.00 | 0.00 | 0.00 | 14 | 1021.2 |
| 20260509203056 | 82 | 346 | 1.0 | 9.0 | 0.00 | 0.00 | 0.00 | 14 | 1021.2 |
| 20260509202541 | 83 | 278 | 4.0 | 10.0 | 0.00 | 0.00 | 0.00 | 15 | 1021.2 |
| 20260509202039 | 83 | 77 | 1.0 | 10.0 | 0.00 | 0.00 | 0.00 | 15 | 1021.2 |
| 20260509201550 | 82 | 0 | 1.0 | 7.0 | 0.00 | 0.00 | 0.00 | 14 | 1021.2 |
| 20260509201038 | 82 | 38 | 4.0 | 7.0 | 0.00 | 0.00 | 0.00 | 14 | 1021.2 |
| 20260509200538 | 83 | 136 | 1.0 | 12.0 | 0.00 | 0.00 | 0.00 | 14 | 1021.2 |
| 20260509200052 | 83 | 0 | 1.0 | 12.0 | 0.00 | 0.00 | 0.00 | 14 | 1021.2 |
| 20260509195540 | 83 | 118 | 1.0 | 9.0 | 0.00 | 0.00 | 0.00 | 13 | 1021.2 |
| 20260509195039 | 83 | 75 | 2.0 | 9.0 | 0.00 | 0.00 | 0.00 | 14 | 1021.2 |
| 20260509194553 | 82 | 0 | 2.0 | 9.0 | 0.00 | 0.00 | 0.00 | 13 | 1021.2 |
| 20260509194039 | 82 | 49 | 3.0 | 9.0 | 0.00 | 0.00 | 0.00 | 13 | 1021.2 |
| 20260509193540 | 81 | 60 | 0.0 | 6.0 | 0.00 | 0.00 | 0.00 | 15 | 1021.2 |
| 20260509193045 | 81 | 0 | 2.0 | 6.0 | 0.00 | 0.00 | 0.00 | 15 | 1021.2 |
| 20260509192542 | 82 | 0 | 1.0 | 7.0 | 0.00 | 0.00 | 0.00 | 15 | 1021.2 |
| 20260509192040 | 82 | 0 | 2.0 | 11.0 | 0.00 | 0.00 | 0.00 | 15 | 1021.2 |
| 20260509191549 | 82 | 0 | 6.0 | 11.0 | 0.00 | 0.00 | 0.00 | 15 | 1021.2 |
| 20260509191039 | 82 | 114 | 0.0 | 10.0 | 0.00 | 0.00 | 0.00 | 16 | 1021.2 |
| 20260509190539 | 82 | 56 | 5.0 | 10.0 | 0.00 | 0.00 | 0.00 | 16 | 1021.2 |
| 20260509190052 | 81 | 103 | 4.0 | 9.0 | 0.00 | 0.00 | 0.00 | 15 | 1021.2 |
| 20260509185539 | 81 | 0 | 4.0 | 12.0 | 0.00 | 0.01 | 0.00 | 15 | 1021.2 |
| 20260509185039 | 81 | 27 | 3.0 | 12.0 | 0.00 | 0.01 | 0.00 | 15 | 1021.2 |
| 20260509184548 | 81 | 42 | 2.0 | 11.0 | 0.00 | 0.01 | 0.00 | 16 | 1021.2 |
| 20260509184038 | 81 | 95 | 5.0 | 15.0 | 0.00 | 0.01 | 0.00 | 16 | 1021.2 |
| 20260509183538 | 81 | 338 | 3.0 | 15.0 | 0.00 | 0.01 | 0.00 | 16 | 1021.2 |
| 20260509183047 | 81 | 317 | 4.0 | 7.0 | 0.00 | 0.01 | 0.00 | 15 | 1021.2 |
| 20260509182539 | 81 | 70 | 1.0 | 4.0 | 0.00 | 0.01 | 0.00 | 16 | 1021.2 |
| 20260509182040 | 80 | 0 | 0.0 | 6.0 | 0.00 | 0.01 | 0.00 | 16 | 1021.2 |
| 20260509181559 | 80 | 0 | 0.0 | 6.0 | 0.00 | 0.01 | 0.00 | 16 | 1021.2 |
| 20260509181039 | 80 | 76 | 3.0 | 6.0 | 0.00 | 0.01 | 0.00 | 16 | 1021.2 |
| 20260509180540 | 80 | 349 | 1.0 | 9.0 | 0.00 | 0.01 | 0.00 | 15 | 1021.2 |
| 20260509180043 | 80 | 78 | 0.0 | 9.0 | 0.00 | 0.01 | 0.00 | 17 | 1021.2 |
| 20260509175539 | 80 | 119 | 3.0 | 9.0 | 0.00 | 0.01 | 0.00 | 16 | 1021.2 |
| 20260509175043 | 80 | 278 | 0.0 | 9.0 | 0.00 | 0.01 | 0.00 | 16 | 1021.2 |
| 20260509174551 | 80 | 129 | 1.0 | 9.0 | 0.00 | 0.01 | 0.00 | 16 | 1021.2 |
| 20260509174039 | 80 | 74 | 1.0 | 5.0 | 0.00 | 0.01 | 0.00 | 17 | 1021.2 |
| 20260509173538 | 79 | 0 | 0.0 | 9.0 | 0.00 | 0.01 | 0.00 | 16 | 1021.2 |
| 20260509173047 | 79 | 84 | 1.0 | 9.0 | 0.00 | 0.01 | 0.00 | 16 | 1021.2 |
| 20260509172538 | 79 | 103 | 2.0 | 6.0 | 0.00 | 0.01 | 0.00 | 16 | 1021.2 |
| 20260509172040 | 78 | 257 | 0.0 | 8.0 | 0.00 | 0.01 | 0.00 | 17 | 1021.2 |
| 20260509171607 | 77 | 114 | 4.0 | 8.0 | 0.00 | 0.01 | 0.00 | 18 | 1021.2 |
| 20260509171040 | 77 | 0 | 1.0 | 6.0 | 0.00 | 0.01 | 0.00 | 18 | 1021.2 |
| 20260509170539 | 78 | 114 | 0.0 | 5.0 | 0.00 | 0.01 | 0.00 | 19 | 1021.2 |
| 20260509170050 | 77 | 201 | 2.0 | 5.0 | 0.00 | 0.01 | 0.00 | 18 | 1021.2 |
| 20260509165540 | 77 | 214 | 0.0 | 5.0 | 0.00 | 0.01 | 0.00 | 20 | 1021.2 |
| 20260509165040 | 77 | 152 | 1.0 | 7.0 | 0.00 | 0.01 | 0.00 | 19 | 1021.2 |
| 20260509164551 | 76 | 0 | 2.0 | 7.0 | 0.00 | 0.01 | 0.00 | 20 | 1021.2 |
| 20260509164040 | 76 | 77 | 1.0 | 6.0 | 0.00 | 0.01 | 0.00 | 20 | 1021.2 |
| 20260509163541 | 76 | 68 | 1.0 | 6.0 | 0.00 | 0.01 | 0.00 | 19 | 1021.2 |
| 20260509163059 | 76 | 0 | 3.0 | 6.0 | 0.00 | 0.01 | 0.00 | 19 | 1021.2 |
| 20260509162540 | 76 | 68 | 3.0 | 6.0 | 0.00 | 0.01 | 0.00 | 20 | 1021.2 |
| 20260509162039 | 76 | 0 | 2.0 | 7.0 | 0.00 | 0.01 | 0.00 | 20 | 1021.2 |
| 20260509161554 | 75 | 193 | 2.0 | 8.0 | 0.00 | 0.01 | 0.00 | 21 | 1021.2 |
| 20260509161038 | 75 | 49 | 3.0 | 8.0 | 0.00 | 0.01 | 0.00 | 21 | 1021.2 |
| 20260509160539 | 75 | 103 | 2.0 | 6.0 | 0.00 | 0.01 | 0.00 | 21 | 1021.2 |
| 20260509160057 | 75 | 188 | 3.0 | 8.0 | 0.00 | 0.01 | 0.00 | 22 | 1021.2 |
| 20260509155539 | 76 | 84 | 2.0 | 8.0 | 0.00 | 0.01 | 0.00 | 23 | 1021.2 |
| 20260509155041 | 75 | 207 | 1.0 | 6.0 | 0.00 | 0.01 | 0.00 | 23 | 1021.2 |
| 20260509154553 | 75 | 0 | 2.0 | 6.0 | 0.00 | 0.01 | 0.00 | 23 | 1021.2 |
| 20260509154038 | 75 | 153 | 1.0 | 6.0 | 0.00 | 0.01 | 0.00 | 23 | 1021.2 |
| 20260509153538 | 74 | 135 | 1.0 | 5.0 | 0.00 | 0.01 | 0.00 | 23 | 1021.2 |
| 20260509153053 | 74 | 84 | 1.0 | 7.0 | 0.00 | 0.01 | 0.00 | 23 | 1021.2 |
| 20260509152539 | 73 | 149 | 2.0 | 7.0 | 0.00 | 0.01 | 0.00 | 23 | 1021.2 |
| 20260509152039 | 73 | 155 | 2.0 | 7.0 | 0.00 | 0.01 | 0.00 | 23 | 1021.2 |
| 20260509151552 | 74 | 89 | 2.0 | 7.0 | 0.00 | 0.01 | 0.00 | 24 | 1021.2 |
| 20260509151039 | 73 | 0 | 0.0 | 7.0 | 0.00 | 0.01 | 0.00 | 23 | 1021.2 |
| 20260509150539 | 73 | 134 | 3.0 | 7.0 | 0.00 | 0.01 | 0.00 | 23 | 1021.2 |
| 20260509150044 | 73 | 98 | 1.0 | 6.0 | 0.00 | 0.01 | 0.00 | 23 | 1021.2 |
| 20260509145540 | 73 | 67 | 2.0 | 6.0 | 0.00 | 0.01 | 0.00 | 24 | 1021.2 |
| 20260509145040 | 74 | 0 | 1.0 | 5.0 | 0.00 | 0.01 | 0.00 | 25 | 1021.2 |
| 20260509144552 | 74 | 143 | 0.0 | 1.0 | 0.00 | 0.01 | 0.00 | 26 | 1021.2 |
| 20260509144040 | 73 | 0 | 0.0 | 1.0 | 0.00 | 0.01 | 0.00 | 26 | 1021.2 |
| 20260509143539 | 73 | 0 | 0.0 | 0.0 | 0.00 | 0.01 | 0.00 | 26 | 1021.2 |
| 20260509143053 | 72 | 0 | 0.0 | 0.0 | 0.00 | 0.01 | 0.00 | 27 | 1021.2 |
| 20260509142538 | 71 | 0 | 0.0 | 0.0 | 0.00 | 0.01 | 0.00 | 28 | 1021.2 |
| 20260509142038 | 70 | 0 | 0.0 | 0.0 | 0.00 | 0.01 | 0.00 | 29 | 1021.2 |
| 20260509141554 | 69 | 0 | 0.0 | 0.0 | 0.00 | 0.01 | 0.00 | 29 | 1021.2 |
| 20260509141040 | 69 | 0 | 0.0 | 0.0 | 0.00 | 0.01 | 0.00 | 29 | 1021.2 |
| 20260509140538 | 68 | 0 | 0.0 | 0.0 | 0.00 | 0.01 | 0.00 | 30 | 1021.2 |
| 20260509140058 | 66 | 0 | 0.0 | 0.0 | 0.00 | 0.01 | 0.00 | 32 | 1021.2 |
| 20260509135539 | 66 | 0 | 0.0 | 0.0 | 0.00 | 0.01 | 0.00 | 32 | 1021.2 |
| 20260509135039 | 66 | 0 | 0.0 | 0.0 | 0.00 | 0.01 | 0.00 | 33 | 1021.2 |
| 20260509134554 | 65 | 0 | 0.0 | 0.0 | 0.00 | 0.01 | 0.00 | 34 | 1021.2 |
| 20260509134040 | 64 | 0 | 0.0 | 0.0 | 0.00 | 0.01 | 0.00 | 36 | 1021.2 |
| 20260509133543 | 61 | 0 | 0.0 | 0.0 | 0.00 | 0.01 | 0.00 | 42 | 1021.2 |
| 20260509133059 | 59 | 0 | 0.0 | 0.0 | 0.00 | 0.01 | 0.00 | 45 | 1021.2 |
| 20260509132540 | 56 | 0 | 0.0 | 0.0 | 0.00 | 0.01 | 0.00 | 52 | 1021.2 |
| 20260509132040 | 55 | 0 | 0.0 | 0.0 | 0.00 | 0.01 | 0.00 | 52 | 1021.2 |
| 20260509131544 | 54 | 0 | 0.0 | 0.0 | 0.00 | 0.01 | 0.00 | 56 | 1021.2 |
| 20260509131043 | 50 | 0 | 0.0 | 0.0 | 0.00 | 0.01 | 0.00 | 62 | 1021.2 |
| 20260509130539 | 47 | 0 | 0.0 | 0.0 | 0.00 | 0.01 | 0.00 | 64 | 1021.2 |
| 20260509130044 | 44 | 0 | 0.0 | 0.0 | 0.00 | 0.01 | 0.00 | 68 | 1021.2 |
| 20260509125539 | 42 | 0 | 0.0 | 0.0 | 0.00 | 0.01 | 0.00 | 68 | 1021.2 |
| 20260509125038 | 41 | 0 | 0.0 | 0.0 | 0.00 | 0.01 | 0.00 | 70 | 1021.2 |
| 20260509124551 | 40 | 0 | 0.0 | 0.0 | 0.00 | 0.01 | 0.00 | 70 | 1021.2 |
| 20260509124039 | 38 | 0 | 0.0 | 0.0 | 0.00 | 0.01 | 0.00 | 73 | 1021.2 |
| 20260509123539 | 37 | 0 | 0.0 | 0.0 | 0.00 | 0.01 | 0.00 | 74 | 1021.2 |
| 20260509123048 | 35 | 0 | 0.0 | 0.0 | 0.00 | 0.01 | 0.00 | 75 | 1021.2 |
| 20260509122539 | 35 | 0 | 0.0 | 0.0 | 0.00 | 0.01 | 0.00 | 75 | 1021.2 |
| 20260509122042 | 35 | 0 | 0.0 | 0.0 | 0.00 | 0.01 | 0.00 | 74 | 1021.2 |
| 20260509121547 | 35 | 0 | 0.0 | 0.0 | 0.00 | 0.01 | 0.00 | 74 | 1021.2 |
| 20260509121042 | 34 | 0 | 0.0 | 0.0 | 0.00 | 0.01 | 0.00 | 75 | 1021.2 |
| 20260509120539 | 35 | 0 | 0.0 | 0.0 | 0.00 | 0.01 | 0.00 | 74 | 1021.2 |
| 20260509120048 | 35 | 0 | 0.0 | 0.0 | 0.00 | 0.01 | 0.00 | 74 | 1021.2 |
| 20260509115538 | 35 | 0 | 0.0 | 0.0 | 0.00 | 0.01 | 0.00 | 74 | 1021.2 |
| 20260509115038 | 35 | 0 | 0.0 | 0.0 | 0.00 | 0.01 | 0.00 | 74 | 1021.2 |
| 20260509114555 | 35 | 0 | 0.0 | 0.0 | 0.00 | 0.01 | 0.00 | 74 | 1021.2 |
| 20260509114040 | 35 | 0 | 0.0 | 0.0 | 0.00 | 0.01 | 0.00 | 74 | 1021.2 |
| 20260509113540 | 35 | 0 | 0.0 | 0.0 | 0.00 | 0.01 | 0.00 | 74 | 1021.2 |
| 20260509113050 | 35 | 0 | 0.0 | 0.0 | 0.00 | 0.01 | 0.00 | 74 | 1021.2 |
| 20260509112539 | 35 | 0 | 0.0 | 0.0 | 0.00 | 0.01 | 0.00 | 73 | 1021.2 |
| 20260509112039 | 36 | 0 | 0.0 | 0.0 | 0.00 | 0.01 | 0.00 | 72 | 1021.2 |
| 20260509111546 | 36 | 0 | 0.0 | 0.0 | 0.00 | 0.01 | 0.00 | 73 | 1021.2 |
| 20260509111040 | 36 | 0 | 0.0 | 0.0 | 0.00 | 0.01 | 0.00 | 73 | 1021.2 |
| 20260509110540 | 36 | 0 | 0.0 | 0.0 | 0.00 | 0.01 | 0.00 | 72 | 1021.2 |
| 20260509110050 | 37 | 0 | 0.0 | 0.0 | 0.00 | 0.01 | 0.00 | 71 | 1021.2 |
| 20260509105539 | 37 | 0 | 0.0 | 0.0 | 0.00 | 0.01 | 0.00 | 71 | 1021.2 |
| 20260509105039 | 37 | 0 | 0.0 | 0.0 | 0.00 | 0.01 | 0.00 | 70 | 1021.2 |
| 20260509104548 | 37 | 0 | 0.0 | 0.0 | 0.00 | 0.01 | 0.00 | 69 | 1021.2 |
| 20260509104039 | 37 | 0 | 0.0 | 0.0 | 0.00 | 0.01 | 0.00 | 70 | 1021.2 |
| 20260509103539 | 37 | 0 | 0.0 | 0.0 | 0.00 | 0.01 | 0.00 | 72 | 1021.2 |
| 20260509103047 | 36 | 0 | 0.0 | 0.0 | 0.00 | 0.01 | 0.00 | 73 | 1021.2 |
| 20260509102539 | 36 | 0 | 0.0 | 0.0 | 0.00 | 0.01 | 0.00 | 73 | 1021.2 |
| 20260509102039 | 36 | 0 | 0.0 | 0.0 | 0.00 | 0.01 | 0.00 | 74 | 1021.2 |
| 20260509101549 | 36 | 0 | 0.0 | 0.0 | 0.00 | 0.01 | 0.00 | 73 | 1021.2 |
| 20260509101040 | 36 | 0 | 0.0 | 0.0 | 0.00 | 0.01 | 0.00 | 73 | 1021.2 |
| 20260509100540 | 36 | 0 | 0.0 | 0.0 | 0.00 | 0.01 | 0.00 | 73 | 1021.2 |
| 20260509100101 | 36 | 0 | 0.0 | 0.0 | 0.00 | 0.01 | 0.00 | 73 | 1021.2 |
| 20260509095540 | 36 | 0 | 0.0 | 0.0 | 0.00 | 0.01 | 0.00 | 73 | 1021.2 |
| 20260509095038 | 36 | 0 | 0.0 | 0.0 | 0.00 | 0.01 | 0.00 | 72 | 1021.2 |